STARLINK-1932 (46770 NORAD) Tracking and Keplerian Element Data

This shows tracking and keplerian element data for the satellite.

Feedback or suggestion? Click here.




ElementValue
Catalog46770
NameSTARLINK-1932
Epoch Orbit1360
Epoch Day17.91667824
Epoch Year2021
RAAN121.7747
Inclination53.0546
Eccentricity0.0001338
Argument of Perigee73.2115
Mean Anonmoly166.2576
Mean Motion15.06415029
Decay Rate-0.00035512
L11 46770U 20074AH 21017.91667824 -.00035512 00000-0 -23761-2 0 9990
L22 46770 53.0546 121.7747 0001338 73.2115 166.2576 15.06415029 13608

Live tracking and technical data element details for STARLINK-1932 (NORAD 46770). STARLINK-1932 can be tracked NOW for your location showing map with azimuth and elevation plus other details from your city location.

Track the satellite on the map from your city or location and see movement details for azimuth, elevation, latitude, longitude, range, height, and movement on the map or in text.







IsCatalogInMostPopularTable: catalog: 46770, numindb: 28
Update: records affected: 1



GetName: 46770 STARLINK-1932

Hit Count: updated at: Mon, 18 Jan 2021 17:00:52 GMT